ELEKTRO-L 5

Last updated on Mon Sep 07 2026 00:03:03 GMT+0000 (Coordinated Universal Time)

1 67756U 26028A 26248.83065075 -.00000110 00000+0 00000+0 0 9996 2 67756 0.1790 2.7375 0002405 158.1063 199.1656 1.00271019 2054
UTC large
Height (km)
Speed (km/s)
/
Latitude / Longitude
Inclination (degrees)
Orbital Period (minutes)
Azimuth
Elevation
Range (km)
Doppler Factor

Next 0 passes for location: London (51.5072 / 0.1276)

No passes found over London.
ELEKTRO-L 5